Regional Weather Roundup
Issued by NWS

Home | Current Version | Previous Version | Graphics & Text | Print | Product List | Glossary On
Versions: 1 2 3 4 5 6 7 8 9 10 11 12 13 14 15 16 17 18 19 20 21 22 23 24 25 26 27 28 29 30 31 32 33 34 35 36 37 38 39 40 41 42 43 44 45 46 47 48 49 50
000
ASUS43 KMPX 210910
RWRMN
WEATHER ROUNDUP FOR MINNESOTA
NATIONAL WEATHER SERVICE TWIN CITIES/CHANHASSEN MN
400 AM CDT THU SEP 21 2017


NOTE: "FAIR" INDICATES FEW OR NO CLOUDS BELOW 12,000 FEET WITH NO
SIGNIFICANT WEATHER AND/OR OBSTRUCTIONS TO VISIBILITY. N/A MEANS
CURRENT SKY AND/OR WEATHER CONDITIONS ARE NOT AVAILABLE.

MNZ060>063-068>070-211000-
   Twin Cities Metro

CITY           SKY/WX    TMP DP  RH WIND       PRES   REMARKS
TWIN CITIES    CLEAR     54  53  97 CALM      29.99S
ST PAUL        CLEAR     52  50  93 N6        30.00S
CRYSTAL        CLEAR     48  45  89 CALM      29.97F FOG
BLAINE         CLEAR     50  48  93 CALM      29.99S
LAKEVILLE      CLEAR     46  46 100 CALM      29.99R
EDEN PRAIRIE   CLEAR     53  51  93 NE3       29.97F
SOUTH ST PAUL  CLEAR     53  51  94 CALM      29.99R
LAKE ELMO      FAIR      46  46 100 CALM      30.01R FOG
$$
MNZ001>005-007-008-013>017-022>024-027-028-211000-
   Northwest Minnesota

CITY           SKY/WX    TMP DP  RH WIND       PRES   REMARKS
BEMIDJI        CLOUDY    42  39  90 SE3       29.94S
HALLOCK        CLOUDY    52  45  76 SE12      29.80S
ROSEAU         CLEAR     54  45  71 S13       29.86S
WARROAD        CLEAR     50  45  81 S8        29.89R
THIEF RVR FALL CLOUDY    51  43  74 SE9       29.88S
CROOKSTON      CLEAR     50  45  81 SE8       29.85S
FOSSTON        CLEAR     54  45  71 SE9       29.90S
DETROIT LAKES  PTCLDY    52  46  82 SE8       29.93S
MOORHEAD       PTCLDY    55  46  71 SE10      29.87S
PARK RAPIDS    CLEAR     51  44  77 SE8       29.95S
MAHNOMEN       FAIR      53  44  72 SE8       29.90R
$$
MNZ006-009>011-018-025>026-211000-
   North Central Minnesota

CITY           SKY/WX    TMP DP  RH WIND       PRES   REMARKS
BAUDETTE       CLEAR     48  44  86 S7        29.92R
FLAG ISLAND    CLEAR     59  48  67 S9        29.86S
INTL FALLS     CLEAR     43  40  89 SE6       29.96S
WASKISH        CLEAR     50  45  81 SE5       29.93S
BIG FORK       CLOUDY    43  43 100 CALM      29.98R
LONGVILLE      CLEAR     39  39 100 CALM      29.97R
GRAND RAPIDS   CLEAR     42  41  96 CALM      29.99F
CRANE LAKE     CLEAR     39  39 100 CALM      30.02R
ORR            CLEAR     46  43  87 SE3       29.97S
COOK           CLEAR     39  39 100 CALM      30.00F
WALKER         FAIR      53  44  71 S6        29.96R
$$
MNZ012-019>021-037-211000-
   Northeast Minnesota

CITY           SKY/WX    TMP DP  RH WIND       PRES   REMARKS
DULUTH         CLEAR     44  43  96 CALM      30.02R
ELY            CLEAR     39  39 100 CALM      30.02S
HIBBING        CLEAR     36  36 100 CALM      30.00F
EVELETH        CLEAR     38  36  90 CALM      30.03R FOG
DULUTH HARBOR  CLEAR     50  48  93 SW3       30.02S
TWO HARBORS    PTCLDY    45  39  81 CALM      30.01S
SILVER BAY     CLEAR     41  41 100 CALM      30.01R
GRAND MARAIS     N/A     49  46  90 CALM      30.01R
G MARAIS ARPRT CLEAR     39  37  93 N5        30.04R
$$
MNZ029>031-032-039>041-046>048-054>057-064-211000-
   West Central Minnesota

CITY           SKY/WX    TMP DP  RH WIND       PRES   REMARKS
FERGUS FALLS   CLEAR     57  46  67 SE14      29.91S
WHEATON        CLEAR     52  46  82 SE10      29.91R
MORRIS         CLEAR     54  46  76 SE12      29.92S
ALEXANDRIA     CLEAR     53  45  74 SE9       29.96S
ELBOW LAKE     FAIR      53  47  80 E10       29.92S
WADENA         CLEAR     46  45  93 SE5       29.95R
GLENWOOD       CLEAR     50  46  87 SE9       29.96F
APPLETON       CLEAR     54  46  76 SE13      29.92S
BENSON         CLEAR     55  46  71 S10       29.95S
ORTONVILLE     CLEAR     52  46  82 NE6       29.91R
MADISON        CLEAR     52  52 100 S6        29.93S
WILLMAR        FAIR      54  48  82 E9        29.97F
$$
MNZ033>034-036-042>043-049>051-058-059-211000-
   Central Minnesota

CITY           SKY/WX    TMP DP  RH WIND       PRES   REMARKS
ST CLOUD       CLEAR     43  43 100 CALM      29.99S
SAUK CENTRE    FAIR      46  44  95 SE5       29.98S
PAYNESVILLE    CLEAR     55  48  79 SE6       29.98S
AITKIN         CLEAR     39  37  93 CALM      29.97S
PINE RIVER     CLEAR     39  37  93 CALM      30.02R
BRAINERD       CLEAR     44  42  93 CALM      29.99R
LONG PRAIRIE   FAIR      46  45  93 CALM      29.98R
LITTLE FALLS   CLEAR     45  41  87 CALM      29.99S
LITCHFIELD     CLEAR     52  46  82 E5        29.98F
BUFFALO        CLEAR     47  44  88 CALM      29.99F
MAPLE LAKE     CLEAR     46  45  99 CALM      30.00S FOG
HUTCHINSON     CLEAR     47  46  93 E6        29.99S
$$
MNZ037-044-045-052-053-211000-
   East Central Minnesota

CITY           SKY/WX    TMP DP  RH WIND       PRES   REMARKS
PRINCETON      CLEAR     46  45  93 E3        29.99F
MORA           CLEAR     41  39  93 CALM      30.02F FOG
CAMBRIDGE      CLEAR     45  41  87 CALM      30.00F
RUSH CITY      PTCLDY    42  41  97 CALM      30.01S
MOOSE LAKE     CLEAR     39  37  93 CALM      29.99F FOG
HINCKLEY       FAIR      41  41 100 CALM      30.01F
CLOQUET        CLEAR     43  39  87 CALM      30.02S
MCGREGOR       CLEAR     41  41 100 CALM      30.00F
$$
MNZ071>073-080-081-089-090-097-098-211000-
   Southwest Minnesota

CITY           SKY/WX    TMP DP  RH WIND       PRES   REMARKS
MONTEVIDEO     CLEAR     52  46  82 S7        29.94S
GRANITE FALLS  CLEAR     54  49  83 E7        29.95F
CANBY          CLEAR     51  47  84 SE7       29.93S
MARSHALL       CLEAR     53  47  79 S12       29.95R
REDWOOD FALLS  CLEAR     53  46  77 E6        29.95F
OLIVIA         CLEAR     54  46  76 E7        29.96S
PIPESTONE      CLEAR     52  45  76 SE6       29.94S
WINDOM         CLEAR     54  46  76 E5        29.96F
WORTHINGTON    CLEAR     49  47  93 SE5       29.96F
JACKSON        CLEAR     50  46  87 CALM      29.97S
TRACY          CLEAR     54  48  82 S7        29.95F
SLAYTON        CLEAR     47  45  92 SE6       29.97S
$$
MNZ065>067-074>077-082>085-091>093-211000-
   South Central Minnesota

CITY           SKY/WX    TMP DP  RH WIND       PRES   REMARKS
MANKATO        CLEAR     56  49  77 E7        29.98F HAZE
NEW ULM        CLEAR     54  46  76 E6        29.96F
ST JAMES       CLEAR     52  48  87 E6        29.97F
FAIRMONT       CLEAR     51  47  86 E5        29.97S
GLENCOE        CLEAR     52  49  92 E3        29.97F
FARIBAULT      CLEAR     46  46 100 CALM      29.99R
OWATONNA       CLEAR     52  48  87 E3        29.98S
WASECA         CLEAR     54  48  82 E7        30.00R
ALBERT LEA     CLEAR     55  52  88 CALM      29.98R
$$
MNZ078>079-086>088-094>096-211000-
   Southeast Minnesota

CITY           SKY/WX    TMP DP  RH WIND       PRES   REMARKS
ROCHESTER      CLEAR     54  51  90 N7        30.00R
RED WING       CLEAR     50  48  93 CALM      29.97S
STANTON        CLEAR     49  47  95 SW3       29.98R
DODGE CENTER   CLEAR     52  48  87 N3        29.99S
WINONA         CLOUDY    55  55 100 NW3       29.98R FOG
AUSTIN         CLEAR     54  48  82 CALM      29.99R
PRESTON        CLEAR     55  51  87 N3        30.00R
$$
ABBREVIATIONS USED IN REMARKS
   TC - TEMPERATURES IN CELSIUS
  WCI - WIND CHILL INDEX
   HX - HEAT INDEX
  VSB - VISIBILITY
$$




USA.gov is the U.S. government's official web portal to all federal, state and local government web resources and services.